[[{"header":{"parameterUnit":"m.s-1","parameterCategory":1,"la1":30.2992,"la2":30.254,"lo1":-89.0895,"lo2":-89.0443,"dy":0.0025,"dx":0.0025,"nx":19,"ny":19,"refTime":"2026-05-02T21:00:00:Z","depth":0,"parameterNumber":2,"parameterNumberName":"U-component_of_WINDS"},"data":[0,0,0,-1.1498,-1.15,-1.1621,-1.1622,-1.1754,-1.1755,0,0,0,0,0,0,0,0,0,0,0,-1.1451,-1.1451,-1.1498,-1.1501,-1.1621,-1.1622,-1.1754,-1.1755,0,0,0,0,0,0,0,0,0,0,0,-1.145,-1.1451,-1.1452,-1.1501,-1.1621,-1.1622,-1.1754,-1.167,0,0,0,0,0,0,0,0,0,0,-1.1557,-1.1502,-1.1451,-1.1452,-1.1502,-1.1621,-1.1622,-1.1667,-1.1676,-1.1691,0,-1.1702,0,-1.1731,-1.1763,-1.1763,0,0,0,-1.1509,-1.1494,-1.1537,-1.1452,-1.1503,-1.1621,-1.1569,-1.1672,-1.1682,-1.1702,-1.1704,-1.171,-1.1733,-1.1764,-1.1764,-1.1825,-1.1825,0,0,-1.1503,-1.1466,-1.153,-1.1543,-1.1525,-1.1565,-1.1573,-1.1678,-1.1677,-1.1705,-1.1713,-1.1735,-1.1764,-1.1765,-1.1825,-1.1825,0,0,0,-1.1478,-1.1461,-1.1502,-1.1537,-1.1561,-1.1569,-1.1577,-1.1673,-1.1689,-1.1715,-1.1737,-1.1765,-1.1766,-1.1826,-1.1825,-1.1783,0,0,0,-1.1474,-1.1446,-1.1498,-1.1477,-1.1558,-1.1619,-1.1569,-1.1682,-1.1695,-1.1736,-1.1765,-1.1768,-1.1826,-1.1825,-1.1785,-1.1769,0,0,0,-1.1447,-1.1443,-1.1457,-1.1475,-1.1525,-1.1618,-1.1641,-1.1686,-1.1708,-1.1763,-1.1768,-1.1826,-1.1825,-1.1786,-1.1772,-1.1774,0,0,0,-1.1407,-1.1417,-1.1455,-1.1476,-1.1524,-1.1591,-1.164,-1.1692,-1.1735,-1.1766,-1.1826,-1.1825,-1.1786,-1.1773,-1.1775,-1.1769,-1.1763,0,0,-1.14,-1.1415,-1.143,-1.1468,-1.1518,-1.1576,-1.162,-1.1694,-1.1733,-1.1792,-1.1794,-1.1784,-1.1772,-1.1774,-1.1744,-1.1738,0,0,0,-1.1415,-1.1425,-1.1447,-1.1486,-1.1543,-1.159,-1.1661,-1.1688,-1.174,-1.1756,-1.1787,-1.1781,-1.1784,-1.1782,-1.1778,-1.1783,-1.1823,-1.1823,-1.1823,-1.1352,-1.1401,-1.1429,-1.1492,-1.1529,-1.1602,-1.1636,-1.1685,-1.1724,-1.1731,-1.1748,-1.1724,-1.1721,-1.1718,-1.1722,-1.175,-1.1749,-1.1749,-1.1749,-1.1345,-1.1367,-1.1418,-1.1464,-1.1515,-1.1553,-1.1623,-1.165,-1.1692,-1.1715,-1.172,-1.174,-1.1711,-1.1717,-1.1747,-1.1747,-1.1747,-1.1748,-1.1748,-1.1309,-1.1328,-1.1361,-1.1422,-1.1463,-1.1527,-1.1565,-1.1611,-1.1654,-1.1659,-1.1682,-1.1683,-1.1689,-1.1667,-1.1667,-1.1667,-1.1667,-1.1667,-1.1667,-1.1257,-1.1296,-1.1323,-1.1384,-1.1414,-1.146,-1.1533,-1.1564,-1.161,-1.164,-1.1641,-1.1678,-1.1699,-1.1703,-1.1665,-1.1666,-1.1666,-1.1666,-1.1666,-1.1232,-1.1245,-1.1286,-1.1317,-1.1391,-1.1428,-1.1486,-1.1545,-1.1578,-1.1595,-1.1631,-1.164,-1.1659,-1.1663,-1.1666,-1.1621,-1.1621,-1.1621,-1.1621,-1.12,-1.1214,-1.1267,-1.1313,-1.1363,-1.1419,-1.1463,-1.1519,-1.1579,-1.1601,-1.1615,-1.1623,-1.1625,-1.1643,-1.1647,-1.1651,-1.1604,-1.1604,-1.1604,-1.1187,-1.1208,-1.1237,-1.1296,-1.1358,-1.1409,-1.1451,-1.1501,-1.1571,-1.1604,-1.162,-1.1621,-1.1635,-1.1638,-1.167,-1.1675,-1.1684,0,0]},{"header":{"parameterUnit":"m.s-1","parameterCategory":1,"la1":30.2992,"la2":30.254,"lo1":-89.0895,"lo2":-89.0443,"dy":0.0025,"dx":0.0025,"nx":19,"ny":19,"refTime":"2026-05-02T21:00:00:Z","depth":0,"parameterNumber":3,"parameterNumberName":"V-component_of_WINDS"},"data":[0,0,0,-0.9237,-0.9237,-0.9259,-0.9259,-0.9287,-0.9288,0,0,0,0,0,0,0,0,0,0,0,-0.9229,-0.9229,-0.9237,-0.9237,-0.9259,-0.9259,-0.9287,-0.9288,0,0,0,0,0,0,0,0,0,0,0,-0.9229,-0.9229,-0.9229,-0.9237,-0.9259,-0.9259,-0.9287,-0.9271,0,0,0,0,0,0,0,0,0,0,-0.925,-0.9241,-0.9229,-0.9229,-0.9238,-0.9259,-0.9259,-0.927,-0.9272,-0.9277,0,-0.928,0,-0.9284,-0.9289,-0.9289,0,0,0,-0.9239,-0.924,-0.9247,-0.9229,-0.9238,-0.9259,-0.925,-0.9271,-0.9273,-0.9279,-0.928,-0.9281,-0.9284,-0.9289,-0.929,-0.9309,-0.9309,0,0,-0.9238,-0.9233,-0.9245,-0.9248,-0.9243,-0.9249,-0.925,-0.9273,-0.9274,-0.928,-0.9282,-0.9285,-0.929,-0.929,-0.9309,-0.9309,0,0,0,-0.9233,-0.9232,-0.9238,-0.9247,-0.925,-0.925,-0.9251,-0.9273,-0.9275,-0.9282,-0.9285,-0.929,-0.929,-0.9309,-0.9309,-0.9304,0,0,0,-0.9233,-0.9229,-0.9238,-0.9235,-0.925,-0.9262,-0.9251,-0.9274,-0.9276,-0.9285,-0.929,-0.929,-0.9309,-0.9309,-0.9304,-0.9303,0,0,0,-0.9228,-0.9229,-0.9231,-0.9235,-0.9244,-0.9261,-0.9265,-0.9274,-0.9278,-0.9289,-0.929,-0.9309,-0.9309,-0.9304,-0.9303,-0.9306,0,0,0,-0.9223,-0.9228,-0.9231,-0.9239,-0.9243,-0.9258,-0.9265,-0.9276,-0.9286,-0.929,-0.9309,-0.9309,-0.9304,-0.9303,-0.9306,-0.9307,-0.9307,0,0,-0.9227,-0.9229,-0.9233,-0.9237,-0.9249,-0.9255,-0.9267,-0.9281,-0.9288,-0.9302,-0.9302,-0.9304,-0.9303,-0.9306,-0.9309,-0.9309,0,0,0,-0.9233,-0.9236,-0.9241,-0.9248,-0.9258,-0.9266,-0.9278,-0.9283,-0.9295,-0.9293,-0.9306,-0.9306,-0.9308,-0.9308,-0.9308,-0.931,-0.9309,-0.9309,-0.9309,-0.9233,-0.9239,-0.9247,-0.9256,-0.9263,-0.9275,-0.9281,-0.929,-0.9296,-0.9299,-0.9303,-0.9304,-0.9305,-0.9305,-0.9307,-0.9305,-0.9305,-0.9305,-0.9305,-0.924,-0.9245,-0.9251,-0.926,-0.9267,-0.9276,-0.9287,-0.929,-0.93,-0.9302,-0.9304,-0.9305,-0.9305,-0.9306,-0.9304,-0.9304,-0.9304,-0.9304,-0.9304,-0.924,-0.9244,-0.9248,-0.9259,-0.9267,-0.9276,-0.9284,-0.929,-0.9297,-0.9299,-0.9304,-0.9304,-0.9304,-0.9301,-0.9301,-0.9301,-0.9301,-0.9301,-0.9301,-0.9239,-0.9244,-0.9249,-0.9259,-0.9264,-0.9271,-0.9282,-0.9288,-0.9296,-0.93,-0.93,-0.9306,-0.9303,-0.9302,-0.9301,-0.9301,-0.9301,-0.9301,-0.9301,-0.9243,-0.9243,-0.9251,-0.9256,-0.9267,-0.9274,-0.9281,-0.9292,-0.9298,-0.9301,-0.9306,-0.9303,-0.9306,-0.9306,-0.9305,-0.9304,-0.9304,-0.9304,-0.9304,-0.9243,-0.9244,-0.9253,-0.9261,-0.9269,-0.9276,-0.9285,-0.9294,-0.9303,-0.9307,-0.9308,-0.9308,-0.9308,-0.931,-0.931,-0.931,-0.931,-0.931,-0.931,-0.9246,-0.9248,-0.9254,-0.9261,-0.927,-0.9278,-0.9287,-0.9296,-0.9307,-0.9311,-0.931,-0.931,-0.9309,-0.9309,-0.9314,-0.9313,-0.9313,0,0]}]]